Погода в Гороховце

Россия / Владимирская область     56°12′06″N   42°41′28″E
темп.,
°C
ветер,
м/с
пор.,
м/с
влажн.,
%
обл.,
%
осадки,
мм/ч
давл.,
гПа
погр.,
м
8 марта, пн
пн800:00−8зсз3788100 0.4 991173
03:00−12зюз238872 0.4 99327
06:00−9з4995100 0.4 995389
09:00−9з379397 0.4 996306
12:00−6з3587100 0.0 997657
15:00−5зсз4681100 0.2 998846
18:00−8сз388995 0.2 1001204
21:00−12зсз379550 0.2 1004161
9 марта, вт
вт900:00−15сз359760 0.0 100697
03:00−16сз339868 0.1 100865
06:00−18ссз239885 0.1 101074
09:00−16ссз349584 0.1 1012247
12:00−12ссз358999 0.0 1013515
15:00−11ссз458799 0.1 1014699
18:00−14ссз3794100 0.1 1015232
21:00−16ссз3895100 0.2 1018390
10 марта, ср
ср1000:00−18ссз389697 0.1 1019295
03:00−21ссз389698 0.1 1021301
06:00−26ссз389681 0.0 1023192
09:00−24с479352 0.0 1024314
12:00−18ссз468740 0.0 1025562
15:00−16ссз468248 0.0 1025744
18:00−18сз339296 0.0 102557
21:00−20сз359896 0.0 1026109
11 марта, чт
чт1100:00−21сз369991 0.0 1027104
03:00−23сз339968 0.0 102858
06:00−23зсз359917 0.0 102898
09:00−17зсз499326 0.0 1028278
12:00−10сз488983 0.0 1028455
15:00−7сз478367 0.0 1027544
18:00−10зсз34910 0.0 102870
21:00−14зсз23960 0.0 102934
12 марта, пт
пт1200:00−16з22970 0.0 103020
03:00−17зюз23960 0.0 103020
06:00−18юз23960 0.0 103024
09:00−14юз36910 0.0 1030262
12:00−9ююз48830 0.0 1029529
15:00−8ююз59770 0.0 1027766
18:00−11ю411850 0.0 1025354
21:00−13ю5148424 0.0 1024464